Location: ??
(35.4032°N, 139.3073°E)
Time: 12:27:16
(UTC+00:00)

METEOR-M - Pass Details

Date: 13 April 2024
Orbit: 814 x 818 km, 98.6° (Epoch: 21 May)

Event Time Altitude Azimuth Distance (km) Brightness Sun altitude
Rises 17:51:28 0° 14° (NNE) 3,345 8.0 -26.9°
Reaches altitude 10° 17:53:49 10° 16° (NNE) 2,410 7.2 -26.5°
Maximum altitude 17:59:09 76° 102° (ESE) 842 4.2 -25.6°
Enters shadow 18:00:22 54° 172° (S) 986 4.3 -25.4°
